| time (UTC) | temp F | wind direction | speed MPH | gust MPH | rain 1hr in | rain 24hr in | rain mn in | humidity % | barometer mb |
| 20260504204741 | 77 | 353 | 0.0 | 0.0 | 157.50 | 0.00 | 0.00 | 42 | 1006.4 |
| 20260504204242 | 77 | 270 | 8.0 | 0.0 | 157.50 | 0.00 | 0.00 | 43 | 1006.6 |
| 20260504203740 | 77 | 128 | 4.0 | 0.0 | 157.50 | 0.00 | 0.00 | 44 | 1006.7 |
| 20260504203240 | 76 | 4 | 4.0 | 0.0 | 157.50 | 0.00 | 0.00 | 44 | 1006.9 |
| 20260504201741 | 75 | 210 | 4.0 | 0.0 | 157.50 | 0.00 | 0.00 | 45 | 1007.1 |
| 20260504201241 | 75 | 174 | 18.0 | 0.0 | 157.50 | 0.00 | 0.00 | 44 | 1007.1 |
| 20260504200740 | 75 | 260 | 6.0 | 0.0 | 157.50 | 0.00 | 0.00 | 44 | 1007.2 |
| 20260504200240 | 75 | 17 | 4.0 | 0.0 | 157.50 | 0.00 | 0.00 | 45 | 1007.3 |
| 20260504195241 | 75 | 259 | 11.0 | 0.0 | 157.50 | 0.00 | 0.00 | 44 | 1007.4 |
| 20260504194241 | 77 | 284 | 8.0 | 0.0 | 157.50 | 0.00 | 0.00 | 42 | 1007.2 |
| 20260504193240 | 77 | 240 | 11.0 | 0.0 | 157.50 | 0.00 | 0.00 | 43 | 1007.3 |
| 20260504192240 | 77 | 359 | 4.0 | 0.0 | 157.50 | 0.00 | 0.00 | 41 | 1007.4 |
| 20260504191740 | 77 | 172 | 16.0 | 0.0 | 157.50 | 0.00 | 0.00 | 42 | 1007.3 |
| 20260504191241 | 77 | 127 | 3.0 | 0.0 | 157.50 | 0.00 | 0.00 | 41 | 1007.3 |
| 20260504190740 | 78 | 328 | 5.0 | 0.0 | 157.50 | 0.00 | 0.00 | 40 | 1007.2 |
| 20260504190240 | 78 | 248 | 13.0 | 0.0 | 157.50 | 0.00 | 0.00 | 41 | 1007.2 |
| 20260504184740 | 78 | 3 | 9.0 | 0.0 | 157.50 | 0.00 | 0.00 | 39 | 1007.4 |
| 20260504184240 | 77 | 308 | 4.0 | 0.0 | 157.50 | 0.00 | 0.00 | 41 | 1007.2 |
| 20260504183740 | 77 | 269 | 16.0 | 0.0 | 157.50 | 0.00 | 0.00 | 42 | 1007.2 |
| 20260504183240 | 77 | 103 | 7.0 | 0.0 | 157.50 | 0.00 | 0.00 | 43 | 1007.3 |
| 20260504182240 | 76 | 70 | 6.0 | 0.0 | 157.50 | 0.00 | 0.00 | 44 | 1007.4 |
| 20260504181740 | 76 | 266 | 9.0 | 0.0 | 157.50 | 0.00 | 0.00 | 42 | 1007.4 |
| 20260504181240 | 76 | 208 | 5.0 | 0.0 | 157.50 | 0.00 | 0.00 | 42 | 1007.4 |
| 20260504180741 | 75 | 297 | 0.0 | 0.0 | 157.50 | 0.00 | 0.00 | 43 | 1007.4 |
| 20260504180241 | 75 | 309 | 4.0 | 0.0 | 157.50 | 0.00 | 0.00 | 46 | 1007.5 |
| 20260504175740 | 74 | 295 | 8.0 | 0.0 | 157.50 | 0.00 | 0.00 | 44 | 1007.6 |
| 20260504175241 | 74 | 218 | 2.0 | 0.0 | 157.50 | 0.00 | 0.00 | 47 | 1007.6 |
| 20260504174740 | 73 | 343 | 3.0 | 0.0 | 157.50 | 0.00 | 0.00 | 48 | 1007.6 |
| 20260504174300 | 72 | 288 | 9.0 | 0.0 | 157.50 | 0.00 | 0.00 | 48 | 1007.7 |
| 20260504174240 | 72 | 135 | 2.0 | 0.0 | 157.50 | 0.00 | 0.00 | 48 | 1007.8 |
| 20260504173740 | 72 | 288 | 9.0 | 0.0 | 157.50 | 0.00 | 0.00 | 48 | 1007.7 |
| 20260504173241 | 72 | 30 | 5.0 | 0.0 | 157.50 | 0.00 | 0.00 | 46 | 1007.8 |
| 20260504172740 | 72 | 359 | 5.0 | 0.0 | 157.50 | 0.00 | 0.00 | 49 | 1007.8 |
| 20260504172240 | 71 | 218 | 7.0 | 0.0 | 157.50 | 0.00 | 0.00 | 48 | 1007.8 |
| 20260504171240 | 70 | 165 | 3.0 | 0.0 | 157.50 | 0.00 | 0.00 | 53 | 1007.9 |
| 20260504170241 | 70 | 174 | 6.0 | 0.0 | 157.50 | 0.00 | 0.00 | 52 | 1008.0 |
| 20260504160324 | 66 | 288 | 4.0 | 0.0 | 157.50 | 0.00 | 0.00 | 56 | 1008.6 |
| 20260504160240 | 66 | 288 | 4.0 | 0.0 | 157.50 | 0.00 | 0.00 | 56 | 1008.6 |
| 20260504150740 | 63 | 270 | 8.0 | 0.0 | 157.50 | 0.00 | 0.00 | 58 | 1009.0 |
| 20260504150239 | 63 | 155 | 2.0 | 0.0 | 157.50 | 0.00 | 0.00 | 59 | 1009.1 |
| 20260504141240 | 60 | 197 | 2.0 | 0.0 | 157.50 | 0.00 | 0.00 | 63 | 1009.2 |
| 20260504140740 | 59 | 195 | 5.0 | 0.0 | 157.50 | 0.00 | 0.00 | 64 | 1009.2 |
| 20260504140552 | 59 | 287 | 7.0 | 0.0 | 157.50 | 0.00 | 0.00 | 63 | 1009.3 |
| 20260504140240 | 59 | 287 | 7.0 | 0.0 | 157.50 | 0.00 | 0.00 | 63 | 1009.3 |
| 20260504130739 | 55 | 318 | 4.0 | 0.0 | 157.50 | 0.00 | 0.00 | 66 | 1009.8 |
| 20260504130612 | 55 | 159 | 4.0 | 0.0 | 157.50 | 0.00 | 0.00 | 67 | 1009.8 |
| 20260504130239 | 55 | 159 | 4.0 | 0.0 | 157.50 | 0.00 | 0.00 | 67 | 1009.8 |
| 20260504120239 | 51 | 231 | 2.0 | 0.0 | 157.50 | 0.00 | 0.00 | 72 | 1010.0 |
| 20260504110239 | 48 | 136 | 1.0 | 0.0 | 157.50 | 0.00 | 0.00 | 76 | 1009.7 |
| 20260504100239 | 49 | 135 | 1.0 | 0.0 | 157.50 | 0.00 | 0.00 | 73 | 1010.0 |
| 20260504081739 | 51 | 167 | 2.0 | 0.0 | 157.50 | 0.00 | 0.00 | 69 | 1010.8 |
| 20260504081239 | 51 | 170 | 3.0 | 0.0 | 157.50 | 0.00 | 0.00 | 69 | 1010.8 |
| 20260504080739 | 51 | 194 | 3.0 | 0.0 | 157.50 | 0.00 | 0.00 | 68 | 1010.8 |
| 20260504080239 | 52 | 150 | 2.0 | 0.0 | 157.50 | 0.00 | 0.00 | 68 | 1010.8 |
| 20260504070239 | 52 | 242 | 2.0 | 0.0 | 157.50 | 0.00 | 0.00 | 67 | 1011.5 |
| 20260504060239 | 53 | 194 | 5.0 | 0.0 | 157.50 | 0.00 | 0.00 | 64 | 1012.0 |
| 20260504050739 | 52 | 127 | 1.0 | 0.0 | 157.50 | 0.00 | 0.00 | 65 | 1012.7 |
| 20260504050239 | 52 | 181 | 3.0 | 0.0 | 157.50 | 0.00 | 0.00 | 65 | 1012.7 |
| 20260504045739 | 52 | 215 | 2.0 | 0.0 | 157.50 | 0.00 | 0.00 | 66 | 1012.7 |
| 20260504045240 | 52 | 186 | 2.0 | 0.0 | 157.50 | 0.00 | 0.00 | 66 | 1012.8 |
| 20260504044739 | 52 | 179 | 3.0 | 0.0 | 157.50 | 0.00 | 0.00 | 67 | 1012.8 |
| 20260504044239 | 52 | 174 | 6.0 | 0.0 | 157.50 | 0.00 | 0.00 | 67 | 1012.7 |
| 20260504043739 | 52 | 221 | 3.0 | 0.0 | 157.50 | 0.00 | 0.00 | 67 | 1012.8 |
| 20260504043239 | 52 | 89 | 3.0 | 0.0 | 157.50 | 0.00 | 0.00 | 68 | 1012.8 |
| 20260504042739 | 52 | 113 | 3.0 | 0.0 | 157.50 | 0.00 | 0.00 | 68 | 1012.9 |
| 20260504042239 | 52 | 180 | 2.0 | 0.0 | 157.50 | 0.00 | 0.00 | 68 | 1012.9 |
| 20260504041739 | 52 | 152 | 1.0 | 0.0 | 157.50 | 0.00 | 0.00 | 68 | 1012.9 |
| 20260504041239 | 52 | 248 | 1.0 | 0.0 | 157.50 | 0.00 | 0.00 | 69 | 1013.0 |
| 20260504040739 | 52 | 169 | 2.0 | 0.0 | 157.50 | 0.00 | 0.00 | 69 | 1013.0 |
| 20260504040240 | 52 | 210 | 1.0 | 0.0 | 157.50 | 0.00 | 0.00 | 70 | 1013.0 |
| 20260504035739 | 52 | 212 | 0.0 | 0.0 | 157.50 | 0.00 | 0.00 | 70 | 1013.1 |
| 20260504035239 | 52 | 316 | 1.0 | 0.0 | 157.50 | 0.00 | 0.00 | 70 | 1013.2 |
| 20260504034739 | 52 | 146 | 1.0 | 0.0 | 157.50 | 0.00 | 0.00 | 70 | 1013.2 |
| 20260504034239 | 51 | 184 | 2.0 | 0.0 | 157.50 | 0.00 | 0.00 | 70 | 1013.3 |
| 20260504033739 | 52 | 172 | 1.0 | 0.0 | 157.50 | 0.00 | 0.00 | 70 | 1013.3 |
| 20260504033239 | 51 | 129 | 2.0 | 0.0 | 157.50 | 0.00 | 0.00 | 70 | 1013.3 |
| 20260504032739 | 51 | 212 | 3.0 | 0.0 | 157.50 | 0.00 | 0.00 | 70 | 1013.3 |
| 20260504032239 | 52 | 307 | 1.0 | 0.0 | 157.50 | 0.00 | 0.00 | 70 | 1013.3 |
| 20260504031738 | 52 | 153 | 1.0 | 0.0 | 157.50 | 0.00 | 0.00 | 70 | 1013.4 |
| 20260504031239 | 51 | 314 | 0.0 | 0.0 | 157.50 | 0.00 | 0.00 | 70 | 1013.4 |
| 20260504030738 | 51 | 197 | 0.0 | 0.0 | 157.50 | 0.00 | 0.00 | 70 | 1013.5 |
| 20260504030238 | 51 | 271 | 1.0 | 0.0 | 157.50 | 0.00 | 0.00 | 69 | 1013.5 |
| 20260504025739 | 51 | 208 | 2.0 | 0.0 | 157.50 | 0.00 | 0.00 | 69 | 1013.5 |
| 20260504025239 | 51 | 177 | 1.0 | 0.0 | 157.50 | 0.00 | 0.00 | 69 | 1013.5 |
| 20260504024738 | 51 | 194 | 3.0 | 0.0 | 157.50 | 0.00 | 0.00 | 70 | 1013.6 |
| 20260504024239 | 51 | 174 | 3.0 | 0.0 | 157.50 | 0.00 | 0.00 | 69 | 1013.6 |
| 20260504023738 | 51 | 163 | 3.0 | 0.0 | 157.50 | 0.00 | 0.00 | 69 | 1013.7 |
| 20260504023238 | 51 | 152 | 0.0 | 0.0 | 157.50 | 0.00 | 0.00 | 69 | 1013.7 |
| 20260504022739 | 51 | 152 | 0.0 | 0.0 | 157.50 | 0.00 | 0.00 | 69 | 1013.8 |
| 20260504022239 | 51 | 309 | 1.0 | 0.0 | 157.50 | 0.00 | 0.00 | 70 | 1013.9 |
| 20260504021738 | 51 | 162 | 2.0 | 0.0 | 157.50 | 0.00 | 0.00 | 70 | 1013.8 |
| 20260504021239 | 51 | 179 | 3.0 | 0.0 | 157.50 | 0.00 | 0.00 | 69 | 1013.8 |
| 20260504020738 | 51 | 142 | 1.0 | 0.0 | 157.50 | 0.00 | 0.00 | 70 | 1013.8 |
| 20260504020238 | 51 | 183 | 2.0 | 0.0 | 157.50 | 0.00 | 0.00 | 70 | 1013.8 |
| 20260504015739 | 51 | 163 | 0.0 | 0.0 | 157.50 | 0.00 | 0.00 | 70 | 1013.7 |
| 20260504015238 | 51 | 155 | 1.0 | 0.0 | 157.50 | 0.00 | 0.00 | 71 | 1013.6 |
| 20260504014738 | 51 | 194 | 4.0 | 0.0 | 157.50 | 0.00 | 0.00 | 71 | 1013.6 |
| 20260504013238 | 51 | 212 | 2.0 | 0.0 | 157.50 | 0.00 | 0.00 | 70 | 1013.9 |
| 20260504012739 | 51 | 221 | 4.0 | 0.0 | 157.50 | 0.00 | 0.00 | 70 | 1014.0 |
| 20260504012239 | 51 | 179 | 1.0 | 0.0 | 157.50 | 0.00 | 0.00 | 70 | 1014.0 |
| 20260504011738 | 51 | 190 | 3.0 | 0.0 | 157.50 | 0.00 | 0.00 | 70 | 1013.9 |
| 20260504011239 | 51 | 145 | 2.0 | 0.0 | 157.50 | 0.00 | 0.00 | 70 | 1013.8 |
| 20260504010738 | 51 | 62 | 0.0 | 0.0 | 157.50 | 0.00 | 0.00 | 70 | 1013.7 |
| 20260504010238 | 52 | 238 | 2.0 | 0.0 | 157.50 | 0.00 | 0.00 | 70 | 1013.7 |
| 20260504005740 | 52 | 194 | 4.0 | 0.0 | 157.50 | 0.00 | 0.00 | 70 | 1013.7 |
| 20260504005238 | 52 | 176 | 3.0 | 0.0 | 157.50 | 0.00 | 0.00 | 69 | 1013.7 |
| 20260504004738 | 52 | 153 | 2.0 | 0.0 | 157.50 | 0.00 | 0.00 | 69 | 1013.6 |
| 20260504004239 | 52 | 163 | 0.0 | 0.0 | 157.50 | 0.00 | 0.00 | 68 | 1013.7 |
| 20260504003738 | 52 | 170 | 0.0 | 0.0 | 157.50 | 0.00 | 0.00 | 68 | 1013.7 |
| 20260504003238 | 52 | 191 | 0.0 | 0.0 | 157.50 | 0.00 | 0.00 | 67 | 1013.7 |
| 20260504002739 | 52 | 135 | 0.0 | 0.0 | 157.50 | 0.00 | 0.00 | 67 | 1013.7 |
| 20260504002238 | 52 | 204 | 1.0 | 0.0 | 157.50 | 0.00 | 0.00 | 67 | 1013.8 |
| 20260504001738 | 52 | 100 | 1.0 | 0.0 | 157.50 | 0.00 | 0.00 | 67 | 1013.8 |
| 20260504001239 | 52 | 198 | 1.0 | 0.0 | 157.50 | 0.00 | 0.00 | 67 | 1013.9 |
| 20260504000738 | 52 | 183 | 3.0 | 0.0 | 157.50 | 0.00 | 0.00 | 66 | 1013.9 |
| 20260504000157 | 53 | 210 | 2.0 | 0.0 | 157.50 | 0.00 | 0.00 | 66 | 1014.2 |
| 20260503235739 | 53 | 210 | 2.0 | 0.0 | 157.50 | 0.00 | 0.00 | 66 | 1014.2 |
| 20260503235238 | 53 | 210 | 1.0 | 0.0 | 157.50 | 0.00 | 0.00 | 66 | 1014.2 |
| 20260503234738 | 53 | 170 | 1.0 | 0.0 | 157.50 | 0.00 | 0.00 | 65 | 1014.3 |
| 20260503234239 | 53 | 226 | 1.0 | 0.0 | 157.50 | 0.00 | 0.00 | 64 | 1014.5 |
| 20260503233738 | 53 | 298 | 3.0 | 0.0 | 157.50 | 0.00 | 0.00 | 62 | 1014.5 |
| 20260503233239 | 53 | 287 | 7.0 | 0.0 | 157.50 | 0.00 | 0.00 | 62 | 1014.7 |
| 20260503232739 | 54 | 215 | 4.0 | 0.0 | 157.50 | 0.00 | 0.00 | 61 | 1014.8 |
| 20260503232238 | 54 | 270 | 7.0 | 0.0 | 157.50 | 0.00 | 0.00 | 60 | 1014.7 |
| 20260503231738 | 55 | 285 | 7.0 | 0.0 | 157.50 | 0.00 | 0.00 | 59 | 1014.7 |
| 20260503231239 | 55 | 235 | 8.0 | 0.0 | 157.50 | 0.00 | 0.00 | 58 | 1014.6 |
| 20260503230238 | 56 | 212 | 7.0 | 0.0 | 157.50 | 0.00 | 0.00 | 56 | 1014.8 |
| 20260503225739 | 56 | 269 | 10.0 | 0.0 | 157.50 | 0.00 | 0.00 | 54 | 1014.8 |
| 20260503225238 | 57 | 338 | 7.0 | 0.0 | 157.50 | 0.00 | 0.00 | 51 | 1014.8 |
| 20260503224738 | 58 | 312 | 5.0 | 0.0 | 157.50 | 0.00 | 0.00 | 48 | 1014.7 |
| 20260503224239 | 58 | 245 | 6.0 | 0.0 | 157.50 | 0.00 | 0.00 | 45 | 1014.5 |
| 20260503223738 | 59 | 249 | 7.0 | 0.0 | 157.50 | 0.00 | 0.00 | 42 | 1014.5 |
| 20260503223238 | 60 | 278 | 8.0 | 0.0 | 157.50 | 0.00 | 0.00 | 39 | 1014.4 |
| 20260503222739 | 60 | 295 | 6.0 | 0.0 | 157.50 | 0.00 | 0.00 | 38 | 1014.3 |
| 20260503222238 | 61 | 312 | 8.0 | 0.0 | 157.50 | 0.00 | 0.00 | 38 | 1014.3 |
| 20260503221740 | 61 | 84 | 2.0 | 0.0 | 157.50 | 0.00 | 0.00 | 38 | 1014.3 |
| 20260503221239 | 61 | 248 | 5.0 | 0.0 | 157.50 | 0.00 | 0.00 | 37 | 1014.3 |
| 20260503221138 | 62 | 300 | 6.0 | 0.0 | 157.50 | 0.00 | 0.00 | 36 | 1014.2 |
| 20260503220739 | 61 | 305 | 6.0 | 0.0 | 157.50 | 0.00 | 0.00 | 37 | 1014.2 |
| 20260503220442 | 62 | 245 | 4.0 | 0.0 | 157.50 | 0.00 | 0.00 | 36 | 1014.2 |
| 20260503215739 | 62 | 300 | 6.0 | 0.0 | 157.50 | 0.00 | 0.00 | 36 | 1014.2 |
| 20260503215238 | 62 | 245 | 4.0 | 0.0 | 157.50 | 0.00 | 0.00 | 36 | 1014.2 |
| 20260503214738 | 62 | 246 | 9.0 | 0.0 | 157.50 | 0.00 | 0.00 | 35 | 1014.2 |
| 20260503214705 | 62 | 248 | 11.0 | 0.0 | 157.50 | 0.00 | 0.00 | 36 | 1014.3 |
| 20260503214239 | 62 | 248 | 11.0 | 0.0 | 157.50 | 0.00 | 0.00 | 36 | 1014.3 |
| 20260503213945 | 62 | 321 | 3.0 | 0.0 | 157.50 | 0.00 | 0.00 | 35 | 1014.3 |
| 20260503213738 | 62 | 321 | 3.0 | 0.0 | 157.50 | 0.00 | 0.00 | 35 | 1014.3 |
| 20260503213238 | 62 | 350 | 5.0 | 0.0 | 157.50 | 0.00 | 0.00 | 36 | 1014.3 |
| 20260503212739 | 62 | 291 | 5.0 | 0.0 | 157.50 | 0.00 | 0.00 | 37 | 1014.4 |
| 20260503211739 | 63 | 288 | 7.0 | 0.0 | 157.50 | 0.00 | 0.00 | 35 | 1014.5 |
| 20260503211239 | 63 | 288 | 7.0 | 0.0 | 157.50 | 0.00 | 0.00 | 35 | 1014.5 |
| 20260503210738 | 63 | 262 | 4.0 | 0.0 | 157.50 | 0.00 | 0.00 | 35 | 1014.5 |
| 20260503210627 | 64 | 232 | 6.0 | 0.0 | 157.50 | 0.00 | 0.00 | 35 | 1014.5 |
| 20260503210238 | 63 | 239 | 3.0 | 0.0 | 157.50 | 0.00 | 0.00 | 33 | 1014.6 |
| 20260503205739 | 64 | 232 | 6.0 | 0.0 | 157.50 | 0.00 | 0.00 | 35 | 1014.5 |
| 20260503205306 | 64 | 266 | 4.0 | 0.0 | 157.50 | 0.00 | 0.00 | 32 | 1014.7 |